Time,TemperatureF,DewpointF,PressureIn,WindDirection,WindDirectionDegrees,WindSpeedMPH,WindSpeedGustMPH,Humidity,HourlyPrecipIn,Conditions,Clouds,dailyrainin,SoftwareType,DateUTC
2013-11-16 00:01:00,51.3,46.3,30.18,SE,124,0.0,0.0,83,0.00,,---,0.00,VWS V14.01,2013-11-16 05:01:00,
2013-11-16 00:06:00,51.3,46.3,30.18,SE,124,0.0,0.0,83,0.00,,---,0.00,VWS V14.01,2013-11-16 05:06:00,
2013-11-16 00:11:00,51.1,46.1,30.18,SE,124,0.0,0.0,83,0.00,,---,0.00,VWS V14.01,2013-11-16 05:11:00,
2013-11-16 00:16:00,51.1,46.1,30.17,SE,124,0.0,0.0,83,0.00,,---,0.00,VWS V14.01,2013-11-16 05:16:00,
2013-11-16 00:21:00,51.1,46.1,30.17,SE,124,0.0,0.0,83,0.00,,---,0.00,VWS V14.01,2013-11-16 05:21:00,
2013-11-16 00:26:00,51.1,46.1,30.17,SE,124,0.0,0.0,83,0.00,,---,0.00,VWS V14.01,2013-11-16 05:26:00,
2013-11-16 00:31:00,51.1,46.1,30.16,SE,124,0.0,0.0,83,0.00,,---,0.00,VWS V14.01,2013-11-16 05:31:00,
2013-11-16 00:36:00,51.1,46.1,30.16,SE,124,0.0,0.0,83,0.00,,---,0.00,VWS V14.01,2013-11-16 05:36:00,
2013-11-16 00:41:00,51.1,46.1,30.16,SE,124,0.0,0.0,83,0.00,,---,0.00,VWS V14.01,2013-11-16 05:41:00,
2013-11-16 00:46:00,51.1,46.1,30.16,SE,124,0.0,0.0,83,0.00,,---,0.00,VWS V14.01,2013-11-16 05:46:00,
2013-11-16 00:51:00,51.1,46.1,30.16,SE,124,0.0,0.0,83,0.00,,---,0.00,VWS V14.01,2013-11-16 05:51:00,
2013-11-16 00:56:00,51.0,48.8,30.16,SE,124,0.0,0.0,92,0.00,,---,0.00,VWS V14.01,2013-11-16 05:56:00,
2013-11-16 01:01:00,50.8,48.6,30.16,SE,124,0.0,0.0,92,0.00,,---,0.00,VWS V14.01,2013-11-16 06:01:00,
2013-11-16 01:06:00,51.0,48.8,30.16,SE,124,0.0,0.0,92,0.00,,---,0.00,VWS V14.01,2013-11-16 06:06:00,
2013-11-16 01:11:00,51.0,48.8,30.16,SE,124,0.0,0.0,92,0.00,,---,0.00,VWS V14.01,2013-11-16 06:11:00,
2013-11-16 01:16:00,51.0,48.8,30.16,SE,124,0.0,0.0,92,0.00,,---,0.00,VWS V14.01,2013-11-16 06:16:00,
2013-11-16 01:21:00,51.0,48.8,30.16,SE,124,0.0,0.0,92,0.00,,---,0.00,VWS V14.01,2013-11-16 06:21:00,
2013-11-16 01:26:00,51.0,48.8,30.16,SE,124,0.0,0.0,92,0.00,,---,0.00,VWS V14.01,2013-11-16 06:26:00,
2013-11-16 01:31:00,51.0,48.8,30.17,SE,124,0.0,0.0,92,0.00,,---,0.00,VWS V14.01,2013-11-16 06:31:00,
2013-11-16 01:36:00,51.0,48.8,30.17,SE,124,0.0,0.0,92,0.00,,---,0.00,VWS V14.01,2013-11-16 06:36:00,
2013-11-16 01:41:00,51.0,48.8,30.17,SE,124,0.0,0.0,92,0.00,,---,0.00,VWS V14.01,2013-11-16 06:41:00,
2013-11-16 01:46:00,51.0,48.8,30.16,SE,124,0.0,0.0,92,0.00,,---,0.00,VWS V14.01,2013-11-16 06:46:00,
2013-11-16 01:51:00,51.0,48.8,30.16,SE,124,0.0,0.0,92,0.00,,---,0.00,VWS V14.01,2013-11-16 06:51:00,
2013-11-16 01:56:00,51.0,48.8,30.16,SE,124,0.0,0.0,92,0.00,,---,0.00,VWS V14.01,2013-11-16 06:56:00,
2013-11-16 02:01:00,51.0,48.8,30.16,SE,124,0.0,0.0,92,0.00,,---,0.00,VWS V14.01,2013-11-16 07:01:00,
2013-11-16 02:06:00,51.0,48.8,30.16,SE,124,0.0,0.0,92,0.00,,---,0.00,VWS V14.01,2013-11-16 07:06:00,
2013-11-16 02:11:00,51.0,48.8,30.16,SE,124,0.0,0.0,92,0.00,,---,0.00,VWS V14.01,2013-11-16 07:11:00,
2013-11-16 02:16:00,51.0,48.8,30.16,SE,124,0.0,0.0,92,0.00,,---,0.00,VWS V14.01,2013-11-16 07:16:00,
2013-11-16 02:21:00,51.0,48.8,30.16,SE,124,0.0,0.0,92,0.00,,---,0.00,VWS V14.01,2013-11-16 07:21:00,
2013-11-16 02:26:00,51.0,48.8,30.16,SE,124,0.0,0.0,92,0.00,,---,0.00,VWS V14.01,2013-11-16 07:26:00,
2013-11-16 02:31:00,51.0,48.8,30.16,SE,124,0.0,0.0,92,0.00,,---,0.00,VWS V14.01,2013-11-16 07:31:00,
2013-11-16 02:36:00,51.0,48.8,30.16,SE,124,0.0,0.0,92,0.00,,---,0.00,VWS V14.01,2013-11-16 07:36:00,
2013-11-16 02:41:00,51.0,48.8,30.16,SE,124,0.0,0.0,92,0.00,,---,0.00,VWS V14.01,2013-11-16 07:41:00,
2013-11-16 02:46:00,51.0,48.8,30.16,SE,124,0.0,0.0,92,0.00,,---,0.00,VWS V14.01,2013-11-16 07:46:00,
2013-11-16 02:51:00,51.0,48.8,30.16,SE,124,0.0,0.0,92,0.00,,---,0.00,VWS V14.01,2013-11-16 07:51:00,
2013-11-16 02:56:00,51.0,48.8,30.16,SE,124,0.0,0.0,92,0.00,,---,0.00,VWS V14.01,2013-11-16 07:56:00,
2013-11-16 03:01:00,51.0,48.8,30.17,SE,124,0.0,0.0,92,0.00,,---,0.00,VWS V14.01,2013-11-16 08:01:00,
2013-11-16 03:06:00,51.0,48.8,30.17,SE,124,0.0,0.0,92,0.00,,---,0.00,VWS V14.01,2013-11-16 08:06:00,
2013-11-16 03:11:00,51.0,48.8,30.17,SE,124,0.0,0.0,92,0.00,,---,0.00,VWS V14.01,2013-11-16 08:11:00,
2013-11-16 03:16:00,51.0,48.8,30.17,SE,124,0.0,0.0,92,0.00,,---,0.00,VWS V14.01,2013-11-16 08:16:00,
2013-11-16 03:21:00,51.0,48.8,30.17,SE,124,0.0,0.0,92,0.00,,---,0.00,VWS V14.01,2013-11-16 08:21:00,
2013-11-16 03:26:00,51.0,48.8,30.17,SE,124,0.0,0.0,92,0.00,,---,0.00,VWS V14.01,2013-11-16 08:26:00,
2013-11-16 03:31:00,51.0,48.8,30.17,SE,124,0.0,0.0,92,0.00,,---,0.00,VWS V14.01,2013-11-16 08:31:00,
2013-11-16 03:36:00,51.0,48.8,30.17,SE,124,0.0,0.0,92,0.00,,---,0.00,VWS V14.01,2013-11-16 08:36:00,
2013-11-16 03:41:00,51.0,48.8,30.17,SE,124,0.0,0.0,92,0.00,,---,0.00,VWS V14.01,2013-11-16 08:41:00,
2013-11-16 03:46:00,51.0,48.8,30.18,SE,124,0.0,0.0,92,0.00,,---,0.00,VWS V14.01,2013-11-16 08:46:00,
2013-11-16 03:51:00,51.0,48.8,30.18,SE,124,0.0,0.0,92,0.00,,---,0.00,VWS V14.01,2013-11-16 08:51:00,
2013-11-16 03:56:00,51.0,48.8,30.18,SE,124,0.0,0.0,92,0.00,,---,0.00,VWS V14.01,2013-11-16 08:56:00,
2013-11-16 04:01:00,51.0,48.8,30.18,SE,124,0.0,0.0,92,0.00,,---,0.00,VWS V14.01,2013-11-16 09:01:00,
2013-11-16 04:06:00,51.0,48.8,30.18,SE,124,0.0,0.0,92,0.00,,---,0.00,VWS V14.01,2013-11-16 09:06:00,
2013-11-16 04:11:00,51.0,48.8,30.18,SE,124,0.0,0.0,92,0.00,,---,0.00,VWS V14.01,2013-11-16 09:11:00,
2013-11-16 04:16:00,51.0,48.8,30.18,SE,124,0.0,0.0,92,0.00,,---,0.00,VWS V14.01,2013-11-16 09:16:00,
2013-11-16 04:21:00,51.0,48.8,30.18,SE,124,0.0,0.0,92,0.00,,---,0.00,VWS V14.01,2013-11-16 09:21:00,
2013-11-16 04:26:00,51.0,48.8,30.18,SE,124,0.0,0.0,92,0.00,,---,0.00,VWS V14.01,2013-11-16 09:26:00,
2013-11-16 04:31:00,51.0,48.8,30.18,SE,124,0.0,0.0,92,0.00,,---,0.00,VWS V14.01,2013-11-16 09:31:00,
2013-11-16 04:36:00,51.0,48.8,30.18,NNE,30,0.0,0.0,92,0.00,,---,0.00,VWS V14.01,2013-11-16 09:36:00,
2013-11-16 04:41:00,51.0,48.8,30.18,NNE,30,0.0,0.0,92,0.00,,---,0.00,VWS V14.01,2013-11-16 09:41:00,
2013-11-16 04:46:00,51.0,48.8,30.17,NNE,30,0.0,0.0,92,0.00,,---,0.00,VWS V14.01,2013-11-16 09:46:00,
2013-11-16 04:51:00,51.0,48.8,30.17,NNE,30,0.0,0.0,92,0.00,,---,0.00,VWS V14.01,2013-11-16 09:51:00,
2013-11-16 04:56:00,51.0,48.8,30.17,NNE,30,0.0,0.0,92,0.00,,---,0.00,VWS V14.01,2013-11-16 09:56:00,
2013-11-16 05:01:00,51.0,48.8,30.18,NNE,30,0.0,0.0,92,0.00,,---,0.00,VWS V14.01,2013-11-16 10:01:00,
2013-11-16 05:06:00,51.0,48.8,30.18,NNE,30,0.0,0.0,92,0.00,,---,0.00,VWS V14.01,2013-11-16 10:06:00,
2013-11-16 05:11:00,51.0,48.8,30.18,NNE,30,0.0,0.0,92,0.00,,---,0.00,VWS V14.01,2013-11-16 10:11:00,
2013-11-16 05:16:00,50.4,48.2,30.18,NNE,30,0.0,0.0,92,0.00,,---,0.00,VWS V14.01,2013-11-16 10:16:00,
2013-11-16 05:21:00,50.4,48.2,30.18,NNE,30,0.0,0.0,92,0.00,,---,0.00,VWS V14.01,2013-11-16 10:21:00,
2013-11-16 05:26:00,50.5,48.3,30.18,NNE,30,0.0,0.0,92,0.00,,---,0.00,VWS V14.01,2013-11-16 10:26:00,
2013-11-16 05:31:00,50.5,48.3,30.19,NNE,30,0.0,0.0,92,0.00,,---,0.00,VWS V14.01,2013-11-16 10:31:00,
2013-11-16 05:36:00,50.5,48.3,30.19,NNE,30,0.0,0.0,92,0.00,,---,0.00,VWS V14.01,2013-11-16 10:36:00,
2013-11-16 05:41:00,50.5,48.3,30.19,NNE,30,0.0,0.0,92,0.00,,---,0.00,VWS V14.01,2013-11-16 10:41:00,
2013-11-16 05:46:00,50.5,48.3,30.19,NNE,30,0.0,0.0,92,0.00,,---,0.00,VWS V14.01,2013-11-16 10:46:00,
2013-11-16 05:51:00,50.5,48.3,30.19,NNE,30,0.0,0.0,92,0.00,,---,0.00,VWS V14.01,2013-11-16 10:51:00,
2013-11-16 05:56:00,50.5,48.3,30.19,NNE,30,0.0,0.0,92,0.00,,---,0.00,VWS V14.01,2013-11-16 10:56:00,
2013-11-16 06:01:00,50.7,48.5,30.20,NNE,30,0.0,0.0,92,0.00,,---,0.00,VWS V14.01,2013-11-16 11:01:00,
2013-11-16 06:06:00,50.7,48.5,30.20,NNE,30,0.0,0.0,92,0.00,,---,0.00,VWS V14.01,2013-11-16 11:06:00,
2013-11-16 06:11:00,50.7,48.5,30.20,NNE,30,0.0,0.0,92,0.00,,---,0.00,VWS V14.01,2013-11-16 11:11:00,
2013-11-16 06:16:00,50.7,48.5,30.20,NNE,30,0.0,0.0,92,0.00,,---,0.00,VWS V14.01,2013-11-16 11:16:00,
2013-11-16 06:21:00,50.7,48.5,30.20,NNE,30,0.0,0.0,92,0.00,,---,0.00,VWS V14.01,2013-11-16 11:21:00,
2013-11-16 06:26:00,50.7,48.5,30.20,NNE,30,0.0,0.0,92,0.00,,---,0.00,VWS V14.01,2013-11-16 11:26:00,
2013-11-16 06:31:00,50.7,48.5,30.20,NNE,30,0.0,0.0,92,0.00,,---,0.00,VWS V14.01,2013-11-16 11:31:00,
2013-11-16 06:36:00,50.8,48.6,30.20,NNE,30,0.0,0.0,92,0.00,,---,0.00,VWS V14.01,2013-11-16 11:36:00,
2013-11-16 06:41:00,50.8,48.6,30.20,NNE,30,0.0,0.0,92,0.00,,---,0.00,VWS V14.01,2013-11-16 11:41:00,
2013-11-16 06:45:00,50.8,48.6,30.20,NNE,30,0.0,0.0,92,0.00,,---,0.00,VWS V14.01,2013-11-16 11:45:00,
2013-11-16 06:50:00,50.8,48.6,30.20,NNE,30,0.0,0.0,92,0.00,,---,0.00,VWS V14.01,2013-11-16 11:50:00,
2013-11-16 06:55:00,50.8,48.6,30.20,NNE,30,0.0,0.0,92,0.00,,---,0.00,VWS V14.01,2013-11-16 11:55:00,
2013-11-16 07:00:00,50.8,48.6,30.20,NNE,30,0.0,0.0,92,0.00,,---,0.00,VWS V14.01,2013-11-16 12:00:00,
2013-11-16 07:05:00,50.8,48.6,30.20,NNE,30,0.0,0.0,92,0.00,,---,0.00,VWS V14.01,2013-11-16 12:05:00,
2013-11-16 07:10:00,50.8,48.6,30.20,NNE,30,0.0,0.0,92,0.00,,---,0.00,VWS V14.01,2013-11-16 12:10:00,
2013-11-16 07:15:00,50.8,48.6,30.21,NNE,30,0.0,0.0,92,0.00,,---,0.00,VWS V14.01,2013-11-16 12:15:00,
2013-11-16 07:20:00,50.8,48.6,30.21,NNE,30,0.0,0.0,92,0.00,,---,0.00,VWS V14.01,2013-11-16 12:20:00,
2013-11-16 07:25:00,50.8,48.6,30.21,NNE,30,0.0,0.0,92,0.00,,---,0.00,VWS V14.01,2013-11-16 12:25:00,
2013-11-16 07:30:00,51.0,48.8,30.21,NNE,30,0.0,0.0,92,0.00,,---,0.00,VWS V14.01,2013-11-16 12:30:00,
2013-11-16 07:35:00,51.1,48.9,30.21,NNE,30,0.0,0.0,92,0.00,,---,0.00,VWS V14.01,2013-11-16 12:35:00,
2013-11-16 07:40:00,51.1,48.9,30.21,NNE,30,0.0,0.0,92,0.00,,---,0.00,VWS V14.01,2013-11-16 12:40:00,
2013-11-16 07:45:00,51.1,48.9,30.21,NNE,30,0.0,0.0,92,0.00,,---,0.00,VWS V14.01,2013-11-16 12:45:00,
2013-11-16 07:50:00,51.4,49.2,30.21,NNE,30,0.0,0.0,92,0.00,,---,0.00,VWS V14.01,2013-11-16 12:50:00,
2013-11-16 07:55:00,51.4,48.3,30.21,NNE,30,0.0,0.0,89,0.00,,---,0.00,VWS V14.01,2013-11-16 12:55:00,
2013-11-16 08:00:00,51.7,48.6,30.21,NNE,30,0.0,0.0,89,0.00,,---,0.00,VWS V14.01,2013-11-16 13:00:00,
2013-11-16 08:05:00,51.7,48.6,30.21,NNE,30,0.0,0.0,89,0.00,,---,0.00,VWS V14.01,2013-11-16 13:05:00,
2013-11-16 08:10:00,52.0,48.9,30.21,NNE,30,0.0,0.0,89,0.00,,---,0.00,VWS V14.01,2013-11-16 13:10:00,
2013-11-16 08:15:00,52.5,49.0,30.21,NNE,30,0.0,0.0,88,0.00,,---,0.00,VWS V14.01,2013-11-16 13:15:00,
2013-11-16 08:20:00,52.6,48.8,30.21,NNE,30,0.0,0.0,87,0.00,,---,0.00,VWS V14.01,2013-11-16 13:20:00,
2013-11-16 08:25:00,52.8,49.0,30.21,NNE,30,0.0,0.0,87,0.00,,---,0.00,VWS V14.01,2013-11-16 13:25:00,
2013-11-16 08:30:00,52.9,49.5,30.21,NNE,30,0.0,0.0,88,0.00,,---,0.00,VWS V14.01,2013-11-16 13:30:00,
2013-11-16 08:35:00,53.3,49.5,30.21,NNE,30,0.0,0.0,87,0.00,,---,0.00,VWS V14.01,2013-11-16 13:35:00,
2013-11-16 08:40:00,53.5,49.7,30.21,NNE,30,0.0,0.0,87,0.00,,---,0.00,VWS V14.01,2013-11-16 13:40:00,
2013-11-16 08:45:00,53.6,49.8,30.21,NNE,30,0.0,0.0,87,0.00,,---,0.00,VWS V14.01,2013-11-16 13:45:00,
2013-11-16 08:50:00,54.1,50.0,30.21,NNE,30,0.0,0.0,86,0.00,,---,0.00,VWS V14.01,2013-11-16 13:50:00,
2013-11-16 08:55:00,54.2,50.1,30.21,NNE,30,0.0,0.0,86,0.00,,---,0.00,VWS V14.01,2013-11-16 13:55:00,
2013-11-16 09:00:00,54.5,50.4,30.21,NNE,30,0.0,0.0,86,0.00,,---,0.00,VWS V14.01,2013-11-16 14:00:00,
2013-11-16 09:05:00,55.0,51.2,30.21,NNE,30,0.0,0.0,87,0.00,,---,0.00,VWS V14.01,2013-11-16 14:05:00,
2013-11-16 09:10:00,55.3,51.5,30.21,NNE,30,0.0,0.0,87,0.00,,---,0.00,VWS V14.01,2013-11-16 14:10:00,
2013-11-16 09:15:00,55.7,51.6,30.22,NNE,31,0.0,0.0,86,0.00,,---,0.00,VWS V14.01,2013-11-16 14:15:00,
2013-11-16 09:20:00,55.9,51.5,30.22,NE,49,0.0,3.0,85,0.00,,---,0.00,VWS V14.01,2013-11-16 14:20:00,
2013-11-16 09:25:00,56.0,51.6,30.22,NE,49,0.0,0.0,85,0.00,,---,0.00,VWS V14.01,2013-11-16 14:25:00,
2013-11-16 09:30:00,56.2,52.1,30.22,NE,49,0.0,0.0,86,0.00,,---,0.00,VWS V14.01,2013-11-16 14:30:00,
2013-11-16 09:35:00,56.3,52.2,30.22,NE,49,0.0,0.0,86,0.00,,---,0.00,VWS V14.01,2013-11-16 14:35:00,
2013-11-16 09:40:00,56.5,52.4,30.22,NE,49,0.0,0.0,86,0.00,,---,0.00,VWS V14.01,2013-11-16 14:40:00,
2013-11-16 09:45:00,56.5,52.4,30.23,NE,51,0.0,0.0,86,0.00,,---,0.00,VWS V14.01,2013-11-16 14:45:00,
2013-11-16 09:50:00,56.7,52.6,30.23,NE,52,0.0,0.0,86,0.00,,---,0.00,VWS V14.01,2013-11-16 14:50:00,
2013-11-16 09:55:00,56.7,52.6,30.23,NE,51,0.0,0.0,86,0.00,,---,0.00,VWS V14.01,2013-11-16 14:55:00,
2013-11-16 10:00:00,57.5,53.0,30.23,NE,52,0.0,0.0,85,0.00,,---,0.00,VWS V14.01,2013-11-16 15:00:00,
2013-11-16 10:05:00,57.5,53.0,30.23,SE,136,0.0,0.0,85,0.00,,---,0.00,VWS V14.01,2013-11-16 15:05:00,
2013-11-16 10:10:00,57.6,53.1,30.23,SE,134,1.0,2.0,85,0.00,,---,0.00,VWS V14.01,2013-11-16 15:10:00,
2013-11-16 10:15:00,57.8,53.3,30.23,SE,143,0.0,1.0,85,0.00,,---,0.00,VWS V14.01,2013-11-16 15:15:00,
2013-11-16 10:20:00,57.8,53.3,30.23,SE,143,0.0,0.0,85,0.00,,---,0.00,VWS V14.01,2013-11-16 15:20:00,
2013-11-16 10:25:00,58.0,53.5,30.23,SE,143,0.0,0.0,85,0.00,,---,0.00,VWS V14.01,2013-11-16 15:25:00,
2013-11-16 10:30:00,58.0,53.5,30.23,SE,140,0.0,0.0,85,0.00,,---,0.00,VWS V14.01,2013-11-16 15:30:00,
2013-11-16 10:35:00,58.0,53.5,30.23,SE,136,0.0,2.0,85,0.00,,---,0.00,VWS V14.01,2013-11-16 15:35:00,
2013-11-16 10:40:00,58.0,53.8,30.23,SE,137,0.0,1.0,86,0.00,,---,0.00,VWS V14.01,2013-11-16 15:40:00,
2013-11-16 10:45:00,58.1,53.9,30.22,SE,137,0.0,0.0,86,0.00,,---,0.00,VWS V14.01,2013-11-16 15:45:00,
2013-11-16 10:50:00,58.1,53.9,30.22,ESE,110,0.0,3.0,86,0.00,,---,0.00,VWS V14.01,2013-11-16 15:50:00,
2013-11-16 10:55:00,58.1,53.6,30.22,ESE,113,1.0,3.0,85,0.00,,---,0.00,VWS V14.01,2013-11-16 15:55:00,
2013-11-16 11:00:00,58.1,53.9,30.22,ESE,113,0.0,1.0,86,0.00,,---,0.00,VWS V14.01,2013-11-16 16:00:00,
2013-11-16 11:05:00,58.3,53.8,30.22,North,0,0.0,0.0,85,0.00,,---,0.00,VWS V14.01,2013-11-16 16:05:00,
2013-11-16 11:10:00,58.4,53.9,30.22,North,0,0.0,0.0,85,0.00,,---,0.00,VWS V14.01,2013-11-16 16:10:00,
2013-11-16 11:15:00,58.6,54.1,30.22,North,0,0.0,0.0,85,0.00,,---,0.00,VWS V14.01,2013-11-16 16:15:00,
2013-11-16 11:20:00,58.7,54.2,30.22,NNE,14,0.0,1.0,85,0.00,,---,0.00,VWS V14.01,2013-11-16 16:20:00,
2013-11-16 11:25:00,58.9,54.1,30.22,NNE,14,0.0,0.0,84,0.00,,---,0.00,VWS V14.01,2013-11-16 16:25:00,
2013-11-16 11:30:00,59.0,54.5,30.21,NNE,14,0.0,0.0,85,0.00,,---,0.00,VWS V14.01,2013-11-16 16:30:00,
2013-11-16 11:35:00,59.3,54.5,30.21,NNE,14,0.0,0.0,84,0.00,,---,0.00,VWS V14.01,2013-11-16 16:35:00,
2013-11-16 11:40:00,59.6,54.8,30.21,NNE,14,0.0,0.0,84,0.00,,---,0.00,VWS V14.01,2013-11-16 16:40:00,
2013-11-16 11:45:00,59.6,54.4,30.21,NNE,14,0.0,0.0,83,0.00,,---,0.00,VWS V14.01,2013-11-16 16:45:00,
2013-11-16 11:50:00,59.6,54.4,30.21,North,4,0.0,1.0,83,0.00,,---,0.00,VWS V14.01,2013-11-16 16:50:00,
2013-11-16 11:55:00,59.8,54.3,30.21,North,4,0.0,0.0,82,0.00,,---,0.00,VWS V14.01,2013-11-16 16:55:00,
2013-11-16 12:00:00,59.9,54.4,30.21,North,4,0.0,0.0,82,0.00,,---,0.00,VWS V14.01,2013-11-16 17:00:00,
2013-11-16 12:05:00,60.4,54.9,30.21,North,7,0.0,0.0,82,0.00,,---,0.00,VWS V14.01,2013-11-16 17:05:00,
2013-11-16 12:10:00,60.5,54.7,30.21,North,7,1.0,2.0,81,0.00,,---,0.00,VWS V14.01,2013-11-16 17:10:00,
2013-11-16 12:15:00,60.5,54.3,30.21,North,7,0.0,1.0,80,0.00,,---,0.00,VWS V14.01,2013-11-16 17:15:00,
2013-11-16 12:20:00,61.0,54.8,30.21,North,6,0.0,0.0,80,0.00,,---,0.00,VWS V14.01,2013-11-16 17:20:00,
2013-11-16 12:25:00,61.6,54.7,30.21,East,97,0.0,2.0,78,0.00,,---,0.00,VWS V14.01,2013-11-16 17:25:00,
2013-11-16 12:30:00,61.8,54.9,30.20,East,97,0.0,0.0,78,0.00,,---,0.00,VWS V14.01,2013-11-16 17:30:00,
2013-11-16 12:35:00,62.7,55.8,30.20,East,97,0.0,0.0,78,0.00,,---,0.00,VWS V14.01,2013-11-16 17:35:00,
2013-11-16 12:40:00,62.7,55.8,30.20,East,97,0.0,0.0,78,0.00,,---,0.00,VWS V14.01,2013-11-16 17:40:00,
2013-11-16 12:45:00,62.7,55.8,30.19,NNE,14,0.0,0.0,78,0.00,,---,0.00,VWS V14.01,2013-11-16 17:45:00,
2013-11-16 12:50:00,62.7,55.8,30.19,NNE,14,0.0,0.0,78,0.00,,---,0.00,VWS V14.01,2013-11-16 17:50:00,
2013-11-16 12:55:00,62.7,55.8,30.19,NNE,16,0.0,0.0,78,0.00,,---,0.00,VWS V14.01,2013-11-16 17:55:00,
2013-11-16 13:00:00,62.7,55.8,30.19,NNE,16,0.0,0.0,78,0.00,,---,0.00,VWS V14.01,2013-11-16 18:00:00,
2013-11-16 13:05:00,62.7,55.8,30.19,North,3,0.0,0.0,78,0.00,,---,0.00,VWS V14.01,2013-11-16 18:05:00,
2013-11-16 13:10:00,62.7,55.8,30.19,North,3,0.0,0.0,78,0.00,,---,0.00,VWS V14.01,2013-11-16 18:10:00,
2013-11-16 13:15:00,62.7,55.8,30.18,North,7,0.0,0.0,78,0.00,,---,0.00,VWS V14.01,2013-11-16 18:15:00,
2013-11-16 13:20:00,66.1,59.0,30.18,North,7,0.0,0.0,78,0.00,,---,0.00,VWS V14.01,2013-11-16 18:20:00,
2013-11-16 13:25:00,66.1,59.0,30.18,North,8,0.0,0.0,78,0.00,,---,0.00,VWS V14.01,2013-11-16 18:25:00,
2013-11-16 13:30:00,66.1,54.8,30.17,North,8,0.0,0.0,67,0.00,,---,0.00,VWS V14.01,2013-11-16 18:30:00,
2013-11-16 13:35:00,66.1,54.8,30.17,North,8,0.0,0.0,67,0.00,,---,0.00,VWS V14.01,2013-11-16 18:35:00,
2013-11-16 13:40:00,66.8,55.5,30.17,North,359,0.0,0.0,67,0.00,,---,0.00,VWS V14.01,2013-11-16 18:40:00,
2013-11-16 13:45:00,66.9,55.6,30.16,North,357,0.0,0.0,67,0.00,,---,0.00,VWS V14.01,2013-11-16 18:45:00,
2013-11-16 13:50:00,66.6,55.3,30.16,North,359,0.0,0.0,67,0.00,,---,0.00,VWS V14.01,2013-11-16 18:50:00,
2013-11-16 13:55:00,66.4,55.5,30.16,North,359,0.0,0.0,68,0.00,,---,0.00,VWS V14.01,2013-11-16 18:55:00,
2013-11-16 14:00:00,66.1,55.2,30.17,North,359,0.0,1.0,68,0.00,,---,0.00,VWS V14.01,2013-11-16 19:00:00,
2013-11-16 14:05:00,66.0,55.2,30.17,North,359,0.0,0.0,68,0.00,,---,0.00,VWS V14.01,2013-11-16 19:05:00,
2013-11-16 14:10:00,65.8,55.0,30.17,North,357,0.0,2.0,68,0.00,,---,0.00,VWS V14.01,2013-11-16 19:10:00,
2013-11-16 14:15:00,65.8,55.4,30.16,North,357,0.0,0.0,69,0.00,,---,0.00,VWS V14.01,2013-11-16 19:15:00,
2013-11-16 14:20:00,65.8,55.8,30.16,North,357,0.0,0.0,70,0.00,,---,0.00,VWS V14.01,2013-11-16 19:20:00,
2013-11-16 14:25:00,65.8,55.4,30.16,North,0,0.0,0.0,69,0.00,,---,0.00,VWS V14.01,2013-11-16 19:25:00,
2013-11-16 14:30:00,65.5,55.5,30.16,North,0,0.0,0.0,70,0.00,,---,0.00,VWS V14.01,2013-11-16 19:30:00,
2013-11-16 14:35:00,65.2,55.6,30.16,North,0,0.0,0.0,71,0.00,,---,0.00,VWS V14.01,2013-11-16 19:35:00,
2013-11-16 14:40:00,65.2,55.6,30.16,North,0,0.0,0.0,71,0.00,,---,0.00,VWS V14.01,2013-11-16 19:40:00,
2013-11-16 14:45:00,65.3,55.7,30.16,North,6,0.0,2.0,71,0.00,,---,0.00,VWS V14.01,2013-11-16 19:45:00,
2013-11-16 14:50:00,65.5,55.9,30.16,North,7,0.0,0.0,71,0.00,,---,0.00,VWS V14.01,2013-11-16 19:50:00,
2013-11-16 14:55:00,65.3,55.7,30.16,North,7,0.0,0.0,71,0.00,,---,0.00,VWS V14.01,2013-11-16 19:55:00,
2013-11-16 15:00:00,65.3,56.0,30.16,North,7,0.0,0.0,72,0.00,,---,0.00,VWS V14.01,2013-11-16 20:00:00,
2013-11-16 15:05:00,65.3,56.4,30.16,North,7,0.0,0.0,73,0.00,,---,0.00,VWS V14.01,2013-11-16 20:05:00,
2013-11-16 15:10:00,65.0,55.8,30.16,NNW,346,0.0,3.0,72,0.00,,---,0.00,VWS V14.01,2013-11-16 20:10:00,
2013-11-16 15:15:00,64.7,55.5,30.16,NE,54,1.0,3.0,72,0.00,,---,0.00,VWS V14.01,2013-11-16 20:15:00,
2013-11-16 15:20:00,64.3,55.8,30.16,ENE,71,0.0,3.0,74,0.00,,---,0.00,VWS V14.01,2013-11-16 20:20:00,
2013-11-16 15:25:00,64.3,55.5,30.16,NE,49,0.0,2.0,73,0.00,,---,0.00,VWS V14.01,2013-11-16 20:25:00,
2013-11-16 15:30:00,64.2,55.4,30.16,North,6,0.0,3.0,73,0.00,,---,0.00,VWS V14.01,2013-11-16 20:30:00,
2013-11-16 15:35:00,63.9,55.8,30.16,North,0,0.0,3.0,75,0.00,,---,0.00,VWS V14.01,2013-11-16 20:35:00,
2013-11-16 15:40:00,63.4,55.3,30.16,NNW,342,2.0,5.0,75,0.00,,---,0.00,VWS V14.01,2013-11-16 20:40:00,
2013-11-16 15:45:00,63.2,55.5,30.16,North,0,0.0,2.0,76,0.00,,---,0.00,VWS V14.01,2013-11-16 20:45:00,
2013-11-16 15:50:00,63.1,55.8,30.16,North,0,0.0,0.0,77,0.00,,---,0.00,VWS V14.01,2013-11-16 20:50:00,
2013-11-16 15:55:00,63.1,56.1,30.16,North,0,0.0,0.0,78,0.00,,---,0.00,VWS V14.01,2013-11-16 20:55:00,
2013-11-16 16:00:00,62.7,55.8,30.16,NNE,20,0.0,0.0,78,0.00,,---,0.00,VWS V14.01,2013-11-16 21:00:00,
2013-11-16 16:05:00,62.6,55.7,30.16,SW,220,0.0,1.0,78,0.00,,---,0.00,VWS V14.01,2013-11-16 21:05:00,
2013-11-16 16:10:00,62.3,55.4,30.16,SW,220,0.0,0.0,78,0.00,,---,0.00,VWS V14.01,2013-11-16 21:10:00,
2013-11-16 16:15:00,62.0,55.4,30.16,SSW,210,0.0,0.0,79,0.00,,---,0.00,VWS V14.01,2013-11-16 21:15:00,
2013-11-16 16:20:00,61.8,55.2,30.16,SSW,210,0.0,0.0,79,0.00,,---,0.00,VWS V14.01,2013-11-16 21:20:00,
2013-11-16 16:25:00,61.6,55.4,30.16,SSW,210,0.0,0.0,80,0.00,,---,0.00,VWS V14.01,2013-11-16 21:25:00,
2013-11-16 16:30:00,61.5,55.6,30.17,SSW,210,0.0,0.0,81,0.00,,---,0.00,VWS V14.01,2013-11-16 21:30:00,
2013-11-16 16:35:00,61.0,55.1,30.17,SSW,210,0.0,0.0,81,0.00,,---,0.00,VWS V14.01,2013-11-16 21:35:00,
2013-11-16 16:40:00,60.9,55.4,30.17,SSW,210,0.0,0.0,82,0.00,,---,0.00,VWS V14.01,2013-11-16 21:40:00,
2013-11-16 16:45:00,60.5,55.3,30.17,SSW,210,0.0,0.0,83,0.00,,---,0.00,VWS V14.01,2013-11-16 21:45:00,
2013-11-16 16:50:00,60.4,55.2,30.17,SSW,210,0.0,0.0,83,0.00,,---,0.00,VWS V14.01,2013-11-16 21:50:00,
2013-11-16 16:55:00,60.1,54.9,30.17,SSW,210,0.0,0.0,83,0.00,,---,0.00,VWS V14.01,2013-11-16 21:55:00,
2013-11-16 17:00:00,60.1,54.9,30.17,SSW,210,0.0,0.0,83,0.00,,---,0.00,VWS V14.01,2013-11-16 22:00:00,
2013-11-16 17:05:00,59.8,55.0,30.17,SSW,210,0.0,0.0,84,0.00,,---,0.00,VWS V14.01,2013-11-16 22:05:00,
2013-11-16 17:10:00,59.8,55.0,30.17,SSW,210,0.0,0.0,84,0.00,,---,0.00,VWS V14.01,2013-11-16 22:10:00,
2013-11-16 17:15:00,59.3,54.5,30.18,SSW,210,0.0,0.0,84,0.00,,---,0.00,VWS V14.01,2013-11-16 22:15:00,
2013-11-16 17:20:00,59.3,54.5,30.18,SSW,210,0.0,0.0,84,0.00,,---,0.00,VWS V14.01,2013-11-16 22:20:00,
2013-11-16 17:25:00,59.3,54.5,30.18,SSW,210,0.0,0.0,84,0.00,,---,0.00,VWS V14.01,2013-11-16 22:25:00,
2013-11-16 17:30:00,59.3,54.5,30.18,SSW,210,0.0,0.0,84,0.00,,---,0.00,VWS V14.01,2013-11-16 22:30:00,
2013-11-16 17:35:00,58.1,53.9,30.18,SSW,210,0.0,0.0,86,0.00,,---,0.00,VWS V14.01,2013-11-16 22:35:00,
2013-11-16 17:40:00,57.8,54.0,30.18,SSW,210,0.0,0.0,87,0.00,,---,0.00,VWS V14.01,2013-11-16 22:40:00,
2013-11-16 17:45:00,57.5,53.7,30.18,SSW,210,0.0,0.0,87,0.00,,---,0.00,VWS V14.01,2013-11-16 22:45:00,
2013-11-16 17:50:00,57.3,53.5,30.18,SSW,210,0.0,0.0,87,0.00,,---,0.00,VWS V14.01,2013-11-16 22:50:00,
2013-11-16 17:55:00,57.0,53.5,30.18,SSW,210,0.0,0.0,88,0.00,,---,0.00,VWS V14.01,2013-11-16 22:55:00,
2013-11-16 18:00:00,56.7,53.2,30.18,SSW,210,0.0,0.0,88,0.00,,---,0.00,VWS V14.01,2013-11-16 23:00:00,
2013-11-16 18:05:00,56.5,53.3,30.18,SSW,210,0.0,0.0,89,0.00,,---,0.00,VWS V14.01,2013-11-16 23:05:00,
2013-11-16 18:10:00,56.3,53.1,30.18,SSW,210,0.0,0.0,89,0.00,,---,0.00,VWS V14.01,2013-11-16 23:10:00,
2013-11-16 18:15:00,56.0,52.8,30.18,SSW,210,0.0,0.0,89,0.00,,---,0.00,VWS V14.01,2013-11-16 23:15:00,
2013-11-16 18:20:00,55.9,53.0,30.18,SSW,210,0.0,0.0,90,0.00,,---,0.00,VWS V14.01,2013-11-16 23:20:00,
2013-11-16 18:25:00,55.7,52.8,30.18,SSW,210,0.0,0.0,90,0.00,,---,0.00,VWS V14.01,2013-11-16 23:25:00,
2013-11-16 18:30:00,55.6,52.7,30.18,SSW,210,0.0,0.0,90,0.00,,---,0.00,VWS V14.01,2013-11-16 23:30:00,
2013-11-16 18:35:00,55.4,52.5,30.18,SSW,210,0.0,0.0,90,0.00,,---,0.00,VWS V14.01,2013-11-16 23:35:00,
2013-11-16 18:40:00,55.3,52.7,30.18,SSW,210,0.0,0.0,91,0.00,,---,0.00,VWS V14.01,2013-11-16 23:40:00,
2013-11-16 18:45:00,55.1,52.5,30.18,SSW,210,0.0,0.0,91,0.00,,---,0.00,VWS V14.01,2013-11-16 23:45:00,
2013-11-16 18:50:00,55.0,52.4,30.18,SSW,210,0.0,0.0,91,0.00,,---,0.00,VWS V14.01,2013-11-16 23:50:00,
2013-11-16 18:55:00,54.8,52.2,30.18,SSW,210,0.0,0.0,91,0.00,,---,0.00,VWS V14.01,2013-11-16 23:55:00,
2013-11-16 19:00:00,54.7,52.1,30.18,SSW,210,0.0,0.0,91,0.00,,---,0.00,VWS V14.01,2013-11-17 00:00:00,
2013-11-16 19:05:00,54.7,52.1,30.18,SSW,210,0.0,0.0,91,0.00,,---,0.00,VWS V14.01,2013-11-17 00:05:00,
2013-11-16 19:10:00,54.4,51.8,30.18,SSW,210,0.0,0.0,91,0.00,,---,0.00,VWS V14.01,2013-11-17 00:10:00,
2013-11-16 19:15:00,54.4,51.8,30.18,SSW,210,0.0,0.0,91,0.00,,---,0.00,VWS V14.01,2013-11-17 00:15:00,
2013-11-16 19:20:00,54.4,51.8,30.18,SSW,210,0.0,0.0,91,0.00,,---,0.00,VWS V14.01,2013-11-17 00:20:00,
2013-11-16 19:25:00,54.4,51.8,30.18,SSW,210,0.0,0.0,91,0.00,,---,0.00,VWS V14.01,2013-11-17 00:25:00,
2013-11-16 19:30:00,53.9,51.3,30.18,SSW,210,0.0,0.0,91,0.00,,---,0.00,VWS V14.01,2013-11-17 00:30:00,
2013-11-16 19:35:00,53.9,51.6,30.18,SSW,210,0.0,0.0,92,0.00,,---,0.00,VWS V14.01,2013-11-17 00:35:00,
2013-11-16 19:40:00,53.8,51.8,30.18,SSW,210,0.0,0.0,93,0.00,,---,0.00,VWS V14.01,2013-11-17 00:40:00,
2013-11-16 19:45:00,53.8,51.8,30.18,SSW,210,0.0,0.0,93,0.00,,---,0.00,VWS V14.01,2013-11-17 00:45:00,
2013-11-16 19:50:00,53.6,51.6,30.18,SSW,210,0.0,0.0,93,0.00,,---,0.00,VWS V14.01,2013-11-17 00:50:00,
2013-11-16 19:55:00,53.5,51.5,30.18,SSW,210,0.0,0.0,93,0.00,,---,0.00,VWS V14.01,2013-11-17 00:55:00,
2013-11-16 20:00:00,53.5,51.5,30.18,SSW,210,0.0,0.0,93,0.00,,---,0.00,VWS V14.01,2013-11-17 01:00:00,
2013-11-16 20:05:00,53.3,51.3,30.18,SSW,210,0.0,0.0,93,0.00,,---,0.00,VWS V14.01,2013-11-17 01:05:00,
2013-11-16 20:10:00,53.2,51.2,30.18,SSW,210,0.0,0.0,93,0.00,,---,0.00,VWS V14.01,2013-11-17 01:10:00,
2013-11-16 20:15:00,53.1,51.1,30.18,SSW,210,0.0,0.0,93,0.00,,---,0.00,VWS V14.01,2013-11-17 01:15:00,
2013-11-16 20:20:00,52.9,50.9,30.18,SSW,210,0.0,0.0,93,0.00,,---,0.00,VWS V14.01,2013-11-17 01:20:00,
2013-11-16 20:25:00,52.8,50.8,30.18,SSW,210,0.0,0.0,93,0.00,,---,0.00,VWS V14.01,2013-11-17 01:25:00,
2013-11-16 20:30:00,52.8,50.8,30.19,SSW,210,0.0,0.0,93,0.00,,---,0.00,VWS V14.01,2013-11-17 01:30:00,
2013-11-16 20:35:00,52.6,50.6,30.19,SSW,210,0.0,0.0,93,0.00,,---,0.00,VWS V14.01,2013-11-17 01:35:00,
2013-11-16 20:40:00,52.6,50.6,30.19,SSW,210,0.0,0.0,93,0.00,,---,0.00,VWS V14.01,2013-11-17 01:40:00,
2013-11-16 20:45:00,52.6,50.6,30.19,SSW,210,0.0,0.0,93,0.00,,---,0.00,VWS V14.01,2013-11-17 01:45:00,
2013-11-16 20:50:00,52.6,50.9,30.19,SSW,210,0.0,0.0,94,0.00,,---,0.00,VWS V14.01,2013-11-17 01:50:00,
2013-11-16 20:55:00,52.5,50.8,30.19,SSW,210,0.0,0.0,94,0.00,,---,0.00,VWS V14.01,2013-11-17 01:55:00,
2013-11-16 21:00:00,52.5,50.8,30.19,SSW,210,0.0,0.0,94,0.00,,---,0.00,VWS V14.01,2013-11-17 02:00:00,
2013-11-16 21:05:00,52.5,50.8,30.19,SSW,210,0.0,0.0,94,0.00,,---,0.00,VWS V14.01,2013-11-17 02:05:00,
2013-11-16 21:10:00,52.5,50.8,30.19,SSW,210,0.0,0.0,94,0.00,,---,0.00,VWS V14.01,2013-11-17 02:10:00,
2013-11-16 21:15:00,52.3,50.6,30.18,SSW,210,0.0,0.0,94,0.00,,---,0.00,VWS V14.01,2013-11-17 02:15:00,
2013-11-16 21:20:00,52.3,50.6,30.18,SSW,210,0.0,0.0,94,0.00,,---,0.00,VWS V14.01,2013-11-17 02:20:00,
2013-11-16 21:25:00,52.2,50.5,30.18,SSW,210,0.0,0.0,94,0.00,,---,0.00,VWS V14.01,2013-11-17 02:25:00,
2013-11-16 21:30:00,52.2,50.8,30.19,SSW,210,0.0,0.0,95,0.00,,---,0.00,VWS V14.01,2013-11-17 02:30:00,
2013-11-16 21:35:00,52.2,50.8,30.19,SSW,210,0.0,0.0,95,0.00,,---,0.00,VWS V14.01,2013-11-17 02:35:00,
2013-11-16 21:40:00,52.0,50.6,30.19,SSW,210,0.0,0.0,95,0.00,,---,0.00,VWS V14.01,2013-11-17 02:40:00,
2013-11-16 21:45:00,52.0,50.6,30.20,SSW,210,0.0,0.0,95,0.00,,---,0.00,VWS V14.01,2013-11-17 02:45:00,
2013-11-16 21:50:00,52.2,50.8,30.20,SSW,210,0.0,0.0,95,0.00,,---,0.00,VWS V14.01,2013-11-17 02:50:00,
2013-11-16 21:55:00,52.2,51.1,30.20,SSW,210,0.0,0.0,96,0.00,,---,0.00,VWS V14.01,2013-11-17 02:55:00,
2013-11-16 22:00:00,52.8,51.7,30.20,SSW,210,0.0,0.0,96,0.00,,---,0.00,VWS V14.01,2013-11-17 03:00:00,
2013-11-16 22:05:00,52.9,51.8,30.20,SSW,210,0.0,0.0,96,0.00,,---,0.00,VWS V14.01,2013-11-17 03:05:00,
2013-11-16 22:10:00,53.1,52.0,30.20,SSW,210,0.0,0.0,96,0.00,,---,0.00,VWS V14.01,2013-11-17 03:10:00,
2013-11-16 22:15:00,53.1,52.0,30.20,SSW,210,0.0,0.0,96,0.00,,---,0.00,VWS V14.01,2013-11-17 03:15:00,
2013-11-16 22:20:00,53.3,52.5,30.20,SSW,213,0.0,0.0,97,0.00,,---,0.00,VWS V14.01,2013-11-17 03:20:00,
2013-11-16 22:25:00,53.5,52.7,30.20,SSW,213,0.0,0.0,97,0.00,,---,0.00,VWS V14.01,2013-11-17 03:25:00,
2013-11-16 22:30:00,53.5,52.7,30.20,SSW,213,0.0,0.0,97,0.00,,---,0.00,VWS V14.01,2013-11-17 03:30:00,
2013-11-16 22:35:00,53.6,52.8,30.20,SSW,213,0.0,0.0,97,0.00,,---,0.00,VWS V14.01,2013-11-17 03:35:00,
2013-11-16 22:40:00,53.6,52.8,30.20,SSW,213,0.0,0.0,97,0.00,,---,0.00,VWS V14.01,2013-11-17 03:40:00,
2013-11-16 22:45:00,53.6,52.8,30.19,SSW,213,0.0,0.0,97,0.00,,---,0.00,VWS V14.01,2013-11-17 03:45:00,
2013-11-16 22:50:00,53.6,52.8,30.19,SSW,213,0.0,0.0,97,0.00,,---,0.00,VWS V14.01,2013-11-17 03:50:00,
2013-11-16 22:55:00,53.6,52.8,30.19,SSW,213,0.0,0.0,97,0.00,,---,0.00,VWS V14.01,2013-11-17 03:55:00,
2013-11-16 23:00:00,53.8,53.0,30.19,SSW,213,0.0,0.0,97,0.00,,---,0.00,VWS V14.01,2013-11-17 04:00:00,
2013-11-16 23:05:00,53.8,53.0,30.19,SSW,213,0.0,0.0,97,0.00,,---,0.00,VWS V14.01,2013-11-17 04:05:00,
2013-11-16 23:10:00,53.8,53.0,30.19,SSW,213,0.0,0.0,97,0.00,,---,0.00,VWS V14.01,2013-11-17 04:10:00,
2013-11-16 23:15:00,53.8,53.0,30.19,SSW,213,0.0,0.0,97,0.00,,---,0.00,VWS V14.01,2013-11-17 04:15:00,
2013-11-16 23:20:00,53.8,53.0,30.19,SSW,213,0.0,0.0,97,0.00,,---,0.00,VWS V14.01,2013-11-17 04:20:00,
2013-11-16 23:25:00,53.9,53.1,30.19,SSW,213,0.0,0.0,97,0.00,,---,0.00,VWS V14.01,2013-11-17 04:25:00,
2013-11-16 23:30:00,53.9,53.1,30.18,SSW,213,0.0,0.0,97,0.00,,---,0.00,VWS V14.01,2013-11-17 04:30:00,
2013-11-16 23:35:00,53.9,53.1,30.18,SSW,213,0.0,0.0,97,0.00,,---,0.00,VWS V14.01,2013-11-17 04:35:00,
2013-11-16 23:40:00,53.8,53.0,30.18,SSW,213,0.0,0.0,97,0.00,,---,0.00,VWS V14.01,2013-11-17 04:40:00,
2013-11-16 23:45:00,53.6,52.8,30.18,SSW,213,0.0,0.0,97,0.00,,---,0.00,VWS V14.01,2013-11-17 04:45:00,
2013-11-16 23:50:00,53.6,52.8,30.18,SSW,213,0.0,0.0,97,0.00,,---,0.00,VWS V14.01,2013-11-17 04:50:00,
2013-11-16 23:55:00,53.6,52.8,30.18,SSW,213,0.0,0.0,97,0.00,,---,0.00,VWS V14.01,2013-11-17 04:55:00,